Previsão horária em Alhimovo

Hoje, 19 Junho, Sábado

Tempo Temperatura Precipitação Vento Pressão Humidade
00:00 +15°C° 0 mm 2 m/s 747 mmHg 87%
01:00 +15°C° 0 mm 2 m/s 747 mmHg 90%
02:00 +14°C° 0 mm 2 m/s 746 mmHg 92%
03:00 +15°C° 0 mm 2 m/s 746 mmHg 91%
04:00 +16°C° 0 mm 2 m/s 746 mmHg 90%
05:00 +16°C° 0 mm 2 m/s 746 mmHg 89%
06:00 +18°C° 0 mm 2 m/s 747 mmHg 82%
07:00 +20°C° 0 mm 2 m/s 747 mmHg 75%
08:00 +21°C° 0 mm 2 m/s 747 mmHg 68%
09:00 +23°C° 0 mm 2 m/s 747 mmHg 63%
10:00 +25°C° 0 mm 2 m/s 747 mmHg 57%
11:00 +26°C° 0 mm 2 m/s 746 mmHg 52%
12:00 +26°C° 0 mm 2 m/s 746 mmHg 50%
13:00 +27°C° 0 mm 2 m/s 746 mmHg 49%
14:00 +27°C° 0 mm 2 m/s 746 mmHg 48%
15:00 +27°C° 0 mm 2 m/s 745 mmHg 52%
16:00 +27°C° 0 mm 2 m/s 745 mmHg 56%
17:00 +27°C° 0 mm 2 m/s 745 mmHg 60%
18:00 +25°C° 0 mm 2 m/s 745 mmHg 66%
19:00 +23°C° 0 mm 2 m/s 745 mmHg 73%
20:00 +20°C° 0 mm 2 m/s 745 mmHg 79%
21:00 +19°C° 0 mm 2 m/s 745 mmHg 82%
22:00 +18°C° 0 mm 2 m/s 745 mmHg 85%
23:00 +17°C° 0 mm 2 m/s 745 mmHg 88%

Amanhã, 20 Junho, Domingo

Tempo Temperatura Precipitação Vento Pressão Humidade
00:00 +17°C° 0 mm 2 m/s 745 mmHg 90%
01:00 +17°C° 0 mm 2 m/s 745 mmHg 91%
02:00 +16°C° 0 mm 2 m/s 745 mmHg 92%
03:00 +18°C° 0 mm 1 m/s 745 mmHg 92%
04:00 +18°C° 0 mm 1 m/s 745 mmHg 92%
05:00 +19°C° 0 mm 1 m/s 745 mmHg 91%
06:00 +21°C° 0 mm 1 m/s 745 mmHg 85%
07:00 +23°C° 0 mm 1 m/s 745 mmHg 79%
08:00 +24°C° 0 mm 2 m/s 745 mmHg 73%
09:00 +25°C° 0 mm 2 m/s 745 mmHg 69%
10:00 +27°C° 0 mm 2 m/s 745 mmHg 64%
11:00 +28°C° 0 mm 2 m/s 745 mmHg 60%
12:00 +28°C° 0 mm 2 m/s 744 mmHg 58%
13:00 +29°C° 0 mm 2 m/s 744 mmHg 56%
14:00 +29°C° 0 mm 2 m/s 744 mmHg 53%
15:00 +29°C° 0 mm 2 m/s 744 mmHg 56%
16:00 +29°C° 0 mm 2 m/s 743 mmHg 59%
17:00 +29°C° 0 mm 2 m/s 743 mmHg 61%
18:00 +27°C° 0 mm 2 m/s 743 mmHg 67%
19:00 +25°C° 0 mm 2 m/s 743 mmHg 74%
20:00 +21°C° 0 mm 3 m/s 743 mmHg 80%
21:00 +20°C° 0 mm 2 m/s 743 mmHg 81%
22:00 +19°C° 0 mm 2 m/s 743 mmHg 81%
23:00 +18°C° 0 mm 2 m/s 743 mmHg 82%

Depois de amanhã, 21 Junho, Segunda-feira

Tempo Temperatura Precipitação Vento Pressão Humidade
00:00 +18°C° 0 mm 2 m/s 743 mmHg 84%
01:00 +18°C° 0 mm 2 m/s 743 mmHg 86%
02:00 +17°C° 0 mm 2 m/s 743 mmHg 88%
03:00 +18°C° 0 mm 2 m/s 743 mmHg 88%
04:00 +18°C° 0 mm 2 m/s 743 mmHg 88%
05:00 +18°C° 0 mm 2 m/s 743 mmHg 88%
06:00 +20°C° 0 mm 2 m/s 743 mmHg 82%
07:00 +21°C° 0 mm 2 m/s 743 mmHg 77%
08:00 +24°C° 0 mm 2 m/s 743 mmHg 72%
09:00 +25°C° 0 mm 3 m/s 743 mmHg 66%
10:00 +26°C° 0 mm 3 m/s 743 mmHg 61%
11:00 +27°C° 0 mm 3 m/s 743 mmHg 55%
12:00 +28°C° 0 mm 3 m/s 743 mmHg 53%
13:00 +29°C° 0 mm 3 m/s 743 mmHg 50%
14:00 +29°C° 0 mm 3 m/s 742 mmHg 47%
15:00 +29°C° 0 mm 3 m/s 742 mmHg 52%
16:00 +29°C° 0 mm 3 m/s 742 mmHg 57%
17:00 +28°C° 0 mm 3 m/s 742 mmHg 62%
18:00 +27°C° 0 mm 3 m/s 742 mmHg 69%
19:00 +25°C° 0 mm 3 m/s 742 mmHg 76%
20:00 +22°C° 0 mm 3 m/s 742 mmHg 83%
21:00 +21°C° 0 mm 3 m/s 742 mmHg 87%
22:00 +20°C° 0 mm 3 m/s 742 mmHg 91%
23:00 +20°C° 0 mm 2 m/s 742 mmHg 94%

22 Junho, Terça-feira

Tempo Temperatura Precipitação Vento Pressão Humidade
00:00 +19°C° 0 mm 2 m/s 742 mmHg 95%
01:00 +19°C° 0 mm 2 m/s 742 mmHg 95%
02:00 +19°C° 0 mm 2 m/s 742 mmHg 95%
03:00 +19°C° 0 mm 2 m/s 742 mmHg 95%
04:00 +20°C° 0 mm 2 m/s 742 mmHg 94%
05:00 +20°C° 0 mm 2 m/s 742 mmHg 93%
06:00 +22°C° 0 mm 3 m/s 742 mmHg 85%
07:00 +25°C° 0 mm 3 m/s 742 mmHg 77%
08:00 +26°C° 0 mm 4 m/s 743 mmHg 69%
09:00 +28°C° 0 mm 4 m/s 743 mmHg 63%
10:00 +29°C° 0 mm 4 m/s 743 mmHg 58%
11:00 +30°C° 0 mm 4 m/s 743 mmHg 52%
12:00 +32°C° 0 mm 4 m/s 742 mmHg 51%
13:00 +32°C° 0 mm 4 m/s 742 mmHg 49%
14:00 +33°C° 0 mm 4 m/s 742 mmHg 48%
15:00 +32°C° 0 mm 4 m/s 742 mmHg 52%
16:00 +32°C° 0 mm 4 m/s 742 mmHg 56%
17:00 +30°C° 0 mm 4 m/s 742 mmHg 61%
18:00 +28°C° 0 mm 4 m/s 742 mmHg 68%
19:00 +26°C° 0 mm 3 m/s 742 mmHg 75%
20:00 +25°C° 0 mm 3 m/s 742 mmHg 82%
21:00 +24°C° 0 mm 3 m/s 742 mmHg 86%
22:00 +22°C° 0 mm 3 m/s 742 mmHg 90%
23:00 +21°C° 0 mm 3 m/s 742 mmHg 94%

23 Junho, Quarta-feira

Tempo Temperatura Precipitação Vento Pressão Humidade
00:00 +21°C° 0 mm 3 m/s 742 mmHg 94%
01:00 +21°C° 0 mm 2 m/s 742 mmHg 95%
02:00 +20°C° 0 mm 2 m/s 743 mmHg 96%
03:00 +21°C° 0 mm 2 m/s 743 mmHg 95%
04:00 +21°C° 0 mm 2 m/s 743 mmHg 94%
05:00 +21°C° 0 mm 2 m/s 743 mmHg 94%
06:00 +24°C° 0 mm 2 m/s 743 mmHg 86%
07:00 +26°C° 0 mm 2 m/s 743 mmHg 79%
08:00 +27°C° 0 mm 3 m/s 743 mmHg 72%
09:00 +29°C° 0 mm 3 m/s 743 mmHg 66%
10:00 +30°C° 0 mm 3 m/s 743 mmHg 59%
11:00 +32°C° 0 mm 4 m/s 743 mmHg 53%
12:00 +33°C° 0 mm 3 m/s 743 mmHg 51%
13:00 +33°C° 0 mm 3 m/s 743 mmHg 50%
14:00 +33°C° 0 mm 3 m/s 743 mmHg 48%
15:00 +33°C° 0 mm 3 m/s 743 mmHg 52%
16:00 +33°C° 0 mm 3 m/s 743 mmHg 55%
17:00 +31°C° 0 mm 3 m/s 743 mmHg 58%
18:00 +29°C° 0 mm 3 m/s 743 mmHg 65%
19:00 +27°C° 0 mm 3 m/s 742 mmHg 71%
20:00 +25°C° 0 mm 3 m/s 742 mmHg 77%
21:00 +24°C° 0 mm 3 m/s 743 mmHg 80%
22:00 +22°C° 0 mm 3 m/s 743 mmHg 83%
23:00 +21°C° 0 mm 2 m/s 743 mmHg 85%

24 Junho, Quinta-feira

Tempo Temperatura Precipitação Vento Pressão Humidade
00:00 +21°C° 0 mm 2 m/s 743 mmHg 87%
01:00 +20°C° 0 mm 2 m/s 743 mmHg 89%
02:00 +20°C° 0 mm 2 m/s 743 mmHg 91%
03:00 +20°C° 0 mm 2 m/s 743 mmHg 90%
04:00 +21°C° 0 mm 2 m/s 743 mmHg 89%
05:00 +21°C° 0 mm 2 m/s 743 mmHg 89%
06:00 +24°C° 0 mm 2 m/s 743 mmHg 83%
07:00 +26°C° 0 mm 2 m/s 743 mmHg 77%
08:00 +28°C° 0 mm 2 m/s 743 mmHg 72%
09:00 +29°C° 0 mm 3 m/s 743 mmHg 66%
10:00 +30°C° 0 mm 3 m/s 743 mmHg 60%
11:00 +33°C° 0 mm 3 m/s 743 mmHg 54%
12:00 +33°C° 0 mm 3 m/s 743 mmHg 52%
13:00 +34°C° 0 mm 3 m/s 742 mmHg 49%
14:00 +34°C° 0 mm 3 m/s 742 mmHg 46%
15:00 +34°C° 0 mm 3 m/s 742 mmHg 51%
16:00 +32°C° 0 mm 2 m/s 742 mmHg 55%
17:00 +32°C° 0 mm 2 m/s 742 mmHg 60%
18:00 +30°C° 0 mm 2 m/s 741 mmHg 66%
19:00 +28°C° 0 mm 3 m/s 741 mmHg 72%
20:00 +26°C° 0 mm 3 m/s 741 mmHg 77%
21:00 +25°C° 0 mm 3 m/s 741 mmHg 79%
22:00 +25°C° 0 mm 3 m/s 741 mmHg 81%
23:00 +24°C° 0 mm 2 m/s 741 mmHg 83%
Mostrar mais